Location: Ellingshausen
(50.5460°N, 10.4723°E)
Time: 01:06:43
(UTC+00:00)

YAOGAN 1 - Pass Details

Date: 18 January 2026
Orbit: 605 x 607 km, 97.8° (Epoch: 18 February)

Event Time Altitude Azimuth Distance (km) Brightness Sun altitude
Rises 06:09:35 0° 20° (NNE) 2,876 6.0 -9.5°
Reaches altitude 10° 06:11:55 10° 29° (NNE) 1,967 5.2 -9.1°
Maximum altitude 06:15:53 37° 97° (E) 956 4.3 -8.5°
Drops below altitude 10° 06:19:49 10° 165° (SSE) 1,950 5.7 -8.0°
Sets 06:22:07 0° 174° (S) 2,848 6.4 -7.6°
